Change the Weather History Date:

Wednesday, February 27, 2013

  Actual Average (KHKY) Record (KHKY)
Temperature  
Mean Temperature 44 °F -  
Max Temperature 56 °F 54 °F 75 °F (2011)
Min Temperature 32 °F 30 °F 9 °F (1963)
Degree Days  
Heating Degree Days 21    
Moisture  
Dew Point 34 °F    
Average Humidity 71    
Maximum Humidity 100    
Minimum Humidity 42    
Precipitation  
Precipitation 0.00 in - - ()
Sea Level Pressure  
Sea Level Pressure 29.75 in    
Wind  
Wind Speed 3 mph (SW)    
Max Wind Speed 13 mph    
Max Gust Speed 18 mph    
Visibility 8 miles    
Events Fog    
Averages and records for this station are not official NWS values.
T = Trace of Precipitation, MM = Missing Value Source: NWS Daily Summary

Daily Weather History Graph

Daily Weather History Graph

Search for Another Location

Airport or City:

Trip Planner

Search our weather history database for the weather conditions in past years. The results will help you decide how hot, cold, wet, or windy it might be!

Date:

Astronomy

Feb. 27, 2013 Rise Set
Actual Time 6:58 AM EST 6:19 PM EST
Civil Twilight 6:33 AM EST 6:45 PM EST
Nautical Twilight 6:03 AM EST 7:15 PM EST
Astronomical Twilight 5:33 AM EST 7:44 PM EST
Moon 8:33 PM EST (2/27) 7:38 AM EST (2/27)
Length of Visible Light 12h 12m
Length of Day
11h 21m
Waning Gibbous, 96% of the Moon is Illuminated
Feb 27
Waning Gibbous
Mar 4
Last Quarter
Mar 11
New
Mar 19
First Quarter
Mar 27
Full

Hourly Weather History & Observations

Time (EST) Temp. Windchill Dew Point Humidity Pressure Visibility Wind Dir Wind Speed Gust Speed Precip Events Conditions
12:15 AM 36.5 °F - 36.5 °F 100% 29.68 in 0.5 mi Calm Calm - N/A Fog Fog
12:35 AM 36.1 °F - 36.1 °F 100% 29.68 in 1.0 mi Calm Calm - N/A   Overcast
12:55 AM 36.5 °F - 36.5 °F 100% 29.69 in 0.8 mi Calm Calm - N/A   Overcast
1:15 AM 36.5 °F - 36.5 °F 100% 29.69 in 0.8 mi Calm Calm - N/A   Overcast
1:35 AM 36.5 °F - 36.5 °F 100% 29.69 in 0.8 mi Calm Calm - N/A   Overcast
1:55 AM 36.5 °F - 36.5 °F 100% 29.69 in 0.8 mi Calm Calm - N/A   Overcast
2:15 AM 36.5 °F - 36.5 °F 100% 29.68 in 0.8 mi Calm Calm - N/A   Overcast
2:35 AM 36.7 °F - 36.7 °F 100% 29.68 in 0.5 mi Calm Calm - N/A Fog Fog
2:55 AM 36.9 °F - 36.9 °F 100% 29.68 in 0.5 mi Calm Calm - N/A Fog Fog
3:15 AM 36.7 °F 31.2 °F 36.7 °F 100% 29.68 in 0.8 mi WSW 6.9 mph - N/A   Overcast
3:35 AM 36.7 °F 34.1 °F 36.7 °F 100% 29.69 in 0.8 mi SW 3.5 mph - N/A   Overcast
3:55 AM 36.5 °F 31.8 °F 36.5 °F 100% 29.70 in 1.5 mi WSW 5.8 mph - N/A   Overcast
4:15 AM 36.5 °F 31.8 °F 36.5 °F 100% 29.70 in 3.0 mi SW 5.8 mph - N/A   Overcast
4:35 AM 36.5 °F - 36.5 °F 100% 29.72 in 1.8 mi Calm Calm - N/A   Overcast
4:55 AM 36.1 °F 32.3 °F 36.1 °F 100% 29.72 in 0.5 mi SW 4.6 mph - N/A Fog Fog
5:15 AM 35.6 °F 32.8 °F 35.6 °F 100% 29.73 in 0.5 mi SSW 3.5 mph - N/A Fog Fog
5:55 AM 35.1 °F 32.2 °F 35.1 °F 100% 29.74 in 0.2 mi SW 3.5 mph - N/A Fog Fog
6:15 AM 34.0 °F - 34.0 °F 100% 29.74 in 0.5 mi Calm Calm - N/A Fog Fog
6:35 AM 36.0 °F 30.3 °F 36.0 °F 100% 29.74 in 10.0 mi West 6.9 mph - N/A   Scattered Clouds
6:55 AM 36.1 °F - 36.1 °F 100% 29.75 in 10.0 mi Calm Calm - N/A   Clear
7:15 AM 32.2 °F - 32.2 °F 100% 29.75 in 5.0 mi Calm Calm - N/A   Clear
7:35 AM 32.7 °F - 32.7 °F 100% 29.76 in 7.0 mi Calm Calm - N/A   Clear
7:55 AM 35.2 °F 32.4 °F 35.2 °F 100% 29.78 in 10.0 mi SE 3.5 mph - N/A   Clear
8:15 AM 38.1 °F 35.7 °F 38.1 °F 100% 29.78 in 10.0 mi SE 3.5 mph - N/A   Clear
8:35 AM 41.5 °F - 33.4 °F 73% 29.80 in 10.0 mi Calm Calm - N/A   Clear
8:55 AM 43.3 °F 41.7 °F 32.4 °F 65% 29.81 in 10.0 mi East 3.5 mph - N/A   Clear
9:15 AM 44.6 °F - 32.9 °F 64% 29.80 in 10.0 mi Calm Calm - N/A   Clear
9:35 AM 45.1 °F 43.7 °F 33.1 °F 63% 29.81 in 10.0 mi South 3.5 mph - N/A   Clear
10:15 AM 47.5 °F - 31.3 °F 53% 29.81 in 10.0 mi WSW 8.1 mph - N/A   Clear
10:35 AM 48.4 °F - 30.9 °F 51% 29.82 in 10.0 mi SW 9.2 mph - N/A   Clear
10:55 AM 48.4 °F - 29.8 °F 49% 29.81 in 7.0 mi WSW 8.1 mph - N/A   Clear
11:15 AM 49.8 °F - 30.7 °F 48% 29.81 in 10.0 mi West 8.1 mph - N/A   Clear
11:35 AM 50.0 °F - 30.6 °F 47% 29.81 in 10.0 mi SW 3.5 mph - N/A   Clear
11:55 AM 50.9 °F - 30.7 °F 46% 29.81 in 10.0 mi SW 3.5 mph 16.1 mph N/A   Clear
12:15 PM 51.8 °F - 30.9 °F 45% 29.81 in 10.0 mi South 3.5 mph - N/A   Clear
12:35 PM 52.0 °F - 32.0 °F 47% 29.80 in 10.0 mi SSW 8.1 mph - N/A   Clear
12:55 PM 52.0 °F - 31.8 °F 46% 29.79 in 10.0 mi South 6.9 mph - N/A   Clear
1:15 PM 52.7 °F - 32.0 °F 45% 29.78 in 10.0 mi SSW 9.2 mph - N/A   Clear
1:35 PM 53.6 °F - 32.7 °F 45% 29.77 in 10.0 mi South 6.9 mph - N/A   Clear
1:55 PM 54.7 °F - 34.5 °F 47% 29.77 in 10.0 mi SSW 6.9 mph - N/A   Clear
2:15 PM 54.9 °F - 33.8 °F 45% 29.77 in 10.0 mi South 5.8 mph - N/A   Scattered Clouds
2:35 PM 54.7 °F - 34.0 °F 46% 29.76 in 10.0 mi SSW 6.9 mph - N/A   Scattered Clouds
2:55 PM 55.9 °F - 34.5 °F 45% 29.75 in 10.0 mi SSW 5.8 mph - N/A   Scattered Clouds
3:15 PM 54.9 °F - 34.7 °F 47% 29.75 in 10.0 mi SSE 6.9 mph - N/A   Scattered Clouds
3:35 PM 56.1 °F - 34.0 °F 43% 29.75 in 10.0 mi South 4.6 mph - N/A   Scattered Clouds
3:55 PM 56.3 °F - 33.6 °F 42% 29.75 in 10.0 mi South 8.1 mph - N/A   Clear
4:15 PM 56.1 °F - 34.3 °F 44% 29.75 in 10.0 mi SSW 9.2 mph - N/A   Clear
4:35 PM 56.1 °F - 34.3 °F 44% 29.74 in 10.0 mi SSW 6.9 mph - N/A   Clear
4:55 PM 56.1 °F - 34.7 °F 45% 29.74 in 10.0 mi SSW 9.2 mph - N/A   Clear
5:15 PM 55.4 °F - 34.9 °F 46% 29.74 in 10.0 mi SSW 8.1 mph - N/A   Clear
5:35 PM 54.9 °F - 35.2 °F 48% 29.74 in 10.0 mi SW 5.8 mph - N/A   Clear
5:55 PM 53.8 °F - 35.6 °F 50% 29.75 in 10.0 mi SSW 6.9 mph - N/A   Clear
6:15 PM 52.2 °F - 36.0 °F 54% 29.75 in 10.0 mi SSW 4.6 mph - N/A   Clear
6:35 PM 50.2 °F - 36.5 °F 59% 29.75 in 10.0 mi South 3.5 mph - N/A   Clear
6:55 PM 48.6 °F - 36.3 °F 63% 29.75 in 10.0 mi Calm Calm - N/A   Clear
7:15 PM 41.9 °F - 37.2 °F 83% 29.76 in 10.0 mi Calm Calm - N/A   Clear
7:35 PM 40.5 °F - 37.4 °F 89% 29.76 in 10.0 mi Calm Calm - N/A   Scattered Clouds
7:55 PM 41.7 °F - 37.2 °F 84% 29.76 in 10.0 mi Calm Calm - N/A   Scattered Clouds
8:15 PM 40.5 °F - 36.0 °F 84% 29.76 in 10.0 mi Calm Calm - N/A   Scattered Clouds
8:35 PM 40.1 °F - 35.4 °F 83% 29.75 in 10.0 mi Calm Calm - N/A   Scattered Clouds
8:55 PM 45.3 °F 43.0 °F 36.0 °F 70% 29.75 in 10.0 mi West 4.6 mph - N/A   Clear
9:15 PM 47.3 °F - 35.6 °F 64% 29.76 in 10.0 mi WSW 5.8 mph - N/A   Scattered Clouds
9:35 PM 46.8 °F - 34.5 °F 62% 29.77 in 10.0 mi WNW 3.5 mph - N/A   Mostly Cloudy
9:55 PM 47.1 °F - 32.0 °F 56% 29.79 in 10.0 mi WNW 6.9 mph 16.1 mph N/A   Overcast
10:15 PM 46.6 °F - 33.6 °F 61% 29.79 in 10.0 mi West 12.7 mph 17.3 mph N/A   Overcast
10:35 PM 46.0 °F 40.6 °F 33.3 °F 61% 29.79 in 10.0 mi West 11.5 mph 18.4 mph N/A   Overcast
10:55 PM 45.9 °F 41.2 °F 32.0 °F 58% 29.78 in 10.0 mi West 9.2 mph - N/A   Overcast
11:15 PM 45.5 °F 40.8 °F 30.9 °F 57% 29.78 in 10.0 mi West 9.2 mph - N/A   Scattered Clouds
11:35 PM 45.5 °F 40.8 °F 29.3 °F 53% 29.78 in 10.0 mi West 9.2 mph - N/A   Clear
11:55 PM 45.0 °F 40.6 °F 28.9 °F 53% 29.78 in 10.0 mi West 8.1 mph - N/A   Clear